SCP
1 1 1 2 2 1 1 1 1 1 1 1 1 1 0 0 0 0 0 0 0 0 0 0 0 0 0 0 0 0 0 0 0 0 0 0 0 0
1 1 1 2 2 1 1 1 1 1 1 1 1 1 1 0 0 0 0 0 0 0 0 0 0 0 0 0 0 0 0 0 0 0 0 0 0 0
1 1 1 1 1 1 1 1 1 1 1 1 1 1 1 1 0 0 0 0 0 0 0 0 0 0 0 0 0 0 0 0 0 0 0 0 0 0
1 1 1 1 1 1 1 1 1 1 1 1 1 1 1 1 1 0 0 0 0 0 0 0 0 0 0 0 0 0 0 0 0 0 0 0 0 0
1 1 1 1 1 1 1 1 1 1 1 1 1 1 1 1 1 1 0 0 0 0 0 0 0 0 0 0 0 0 0 0 0 0 0 0 0 0
0 0 0 1 1 1 1 1 1 1 1 1 1 1 1 1 1 1 1 1 0 0 0 0 0 0 0 0 0 0 0 0 0 0 0 0 0 0
0 0 0 0 0 0 1 1 1 1 1 1 2 2 1 1 1 1 1 1 1 1 1 1 0 0 0 0 0 0 0 0 0 0 0 0 0 0
0 0 0 0 0 0 0 0 1 1 1 1 1 1 1 1 1 1 1 1 1 1 1 1 1 1 1 0 0 0 0 0 0 0 0 0 0 0
0 0 0 0 0 0 0 0 0 0 1 1 1 1 1 1 1 1 1 1 1 1 1 1 1 1 1 0 0 0 0 0 0 0 0 0 0 0
0 0 0 0 0 0 0 0 0 0 0 0 1 0 0 0 0 0 1 1 1 1 1 1 1 1 1 1 0 0 0 0 0 0 0 0 0 0
0 0 0 0 0 0 0 0 0 0 0 0 0 0 0 0 0 0 0 0 1 1 1 1 1 1 1 1 0 0 0 0 0 0 0 0 0 0
0 0 0 0 0 0 0 0 0 0 0 0 0 0 0 0 0 0 0 0 0 0 0 1 1 1 1 1 1 0 0 0 0 0 0 0 0 0
0 0 0 0 0 0 0 0 0 0 0 0 0 0 0 0 0 0 0 0 0 0 0 0 0 1 1 1 0 0 0 0 0 0 0 0 0 0
0 0 0 0 0 0 0 0 0 0 0 0 0 0 0 0 0 0 0 0 0 0 0 0 0 0 0 0 0 0 0 0 0 0 0 0 0 0
0 0 0 0 0 0 0 0 0 0 0 0 0 0 0 0 0 0 0 0 0 0 0 0 0 0 0 0 0 0 0 0 0 0 0 0 0 0
0 0 0 0 0 0 0 0 0 0 0 0 0 0 0 0 0 0 0 0 0 0 0 0 0 0 0 0 0 0 0 0 0 0 0 0 0 0
0 0 0 0 0 0 0 0 0 0 0 0 0 0 0 0 0 0 0 0 0 0 0 0 0 0 0 0 0 0 0 0 0 0 0 0 0 0
0 0 0 0 0 0 0 0 0 0 0 0 0 0 0 0 0 0 0 0 0 0 0 0 0 0 0 0 0 0 0 0 0 0 0 0 0 0
0 0 0 0 0 0 0 0 0 0 0 0 0 0 0 0 0 0 0 0 0 0 0 0 0 0 0 0 0 0 0 0 0 0 0 0 0 0
0 0 0 0 0 0 0 0 0 0 0 0 0 0 0 0 0 0 0 0 0 0 0 0 0 0 0 0 0 0 0 0 0 0 0 0 0 0
0 0 0 0 0 0 0 0 0 0 0 0 0 0 0 0 0 0 0 0 0 0 0 0 0 0 0 0 0 0 0 0 0 0 0 0 0 0
0 0 0 0 0 0 0 0 0 0 0 0 0 0 0 0 0 0 0 0 0 0 0 0 0 0 0 0 0 0 0 0 0 0 0 0 0 0
0 0 0 0 0 0 0 0 0 0 0 0 0 0 0 0 0 0 0 0 0 0 0 0 0 0 0 0 0 0 0 0 0 0 0 0 0 0
Wind_Speed
7 7 7 6 7 7 6 5 5 5 4 2 2 4 4 7 8 8 10 12 13 13 13 13 14 14 14 14 14 13 13 12 13 13 12 12 13 14
5 7 6 7 6 7 7 6 6 5 4 2 2 5 6 8 8 9 10 13 12 13 13 13 13 14 14 14 14 14 13 13 13 12 12 12 13 14
5 6 7 7 6 6 6 6 7 6 7 4 2 5 8 8 9 8 10 11 11 14 14 14 14 14 14 14 14 14 14 14 14 14 14 15 15 15
5 6 6 6 7 7 6 7 7 7 7 7 5 6 8 9 10 10 9 11 10 16 18 16 15 14 14 14 14 14 14 14 14 15 16 16 16 17
5 5 5 6 7 6 7 7 6 6 6 5 5 5 5 6 8 9 9 7 9 11 16 16 15 15 15 14 14 15 15 15 15 15 15 15 16 16
4 4 5 6 6 6 5 6 6 6 6 5 4 5 4 4 4 5 6 6 7 7 8 10 13 15 15 14 14 15 15 15 16 16 15 15 15 15
4 4 5 7 9 9 7 6 4 3 4 4 4 4 3 3 2 3 4 4 5 4 5 7 8 9 10 12 15 15 15 15 16 16 16 15 14 14
4 4 3 4 4 6 8 11 10 5 2 1 2 2 2 1 1 2 3 4 4 2 3 4 5 6 5 4 2 3 9 12 15 15 15 13 12 11
6 5 5 5 5 3 3 4 8 9 8 3 3 3 3 2 1 1 2 3 2 2 2 3 3 4 5 6 3 2 1 2 6 9 10 9 8 7
8 7 7 8 11 11 6 7 8 9 8 6 5 5 4 3 2 1 2 3 1 0 2 3 3 4 4 6 5 3 4 4 3 1 2 3 4 4
8 9 9 10 13 15 6 6 7 6 8 9 8 7 6 5 2 1 1 2 3 1 1 3 2 2 2 3 5 4 3 3 3 3 2 0 2 4
5 7 10 10 11 14 8 7 7 6 5 5 4 4 4 4 1 2 1 1 1 1 1 2 1 1 2 2 2 1 2 3 3 2 2 0 2 6
4 5 6 8 8 9 8 6 5 7 2 2 3 3 3 3 3 3 3 3 2 2 2 1 1 1 0 2 2 2 2 2 1 3 4 3 1 5
2 3 4 4 5 5 5 5 6 8 3 2 2 3 3 4 4 4 5 5 5 4 3 3 1 1 2 2 2 2 1 2 2 2 1 6 4 2
3 4 2 2 3 1 2 5 6 4 4 3 2 3 3 3 1 2 3 2 2 3 4 4 3 1 1 1 2 3 2 2 1 1 1 2 2 1
3 1 3 3 3 2 3 3 2 3 4 4 3 2 1 1 0 1 0 1 2 4 4 4 4 3 3 3 3 3 3 3 3 2 1 2 3 4
3 4 4 4 3 2 2 2 3 2 2 3 3 4 4 3 2 1 2 3 2 2 4 4 3 3 4 3 3 3 3 3 4 3 2 3 4 5
3 2 1 3 5 6 6 5 4 4 3 4 4 4 5 4 4 3 4 4 3 2 1 2 4 5 5 3 4 2 2 2 2 2 3 1 3 4
6 3 2 1 1 3 6 7 7 6 5 6 6 5 5 5 6 6 5 5 5 4 3 3 4 4 5 4 4 2 2 2 2 1 2 3 2 3
5 4 3 2 2 2 3 5 6 7 7 6 6 6 7 7 7 7 7 8 7 6 5 5 5 5 4 2 3 5 2 2 2 3 3 4 2 2
5 4 4 3 3 3 3 4 5 5 6 7 7 7 7 8 8 8 8 7 8 8 7 6 4 2 3 3 5 5 6 3 1 3 5 6 4 4
4 4 4 4 5 5 5 6 6 6 6 6 6 6 7 8 9 10 9 8 8 10 10 5 6 6 7 8 7 6 7 8 6 5 4 3 5 6
4 5 5 6 5 5 6 7 8 7 6 6 7 7 7 7 7 8 8 8 7 7 7 6 5 7 9 9 9 7 8 8 7 9 8 10 8 8
Wind_Direction
268 261 257 261 258 261 266 270 271 281 285 226 175 120 134 120 138 135 140 149 153 160 171 178 184 191 198 204 209 213 218 222 226 231 237 243 248 253
282 281 270 257 255 252 250 251 250 259 268 257 184 161 152 151 164 156 155 162 176 184 192 198 202 208 211 214 216 218 221 225 229 234 239 244 247 251
293 291 287 283 269 263 256 249 243 238 248 250 196 159 172 180 169 181 171 182 190 200 209 214 216 218 219 221 222 223 226 229 232 236 239 242 246 251
300 298 294 290 278 270 263 255 247 236 238 242 210 179 188 193 187 201 197 203 207 193 207 215 219 221 222 222 224 227 230 233 236 239 243 246 249 252
323 318 315 301 287 276 267 264 256 245 231 233 218 187 184 193 196 212 220 227 233 188 198 211 218 221 222 223 226 230 234 237 240 243 246 249 251 253
12 359 352 342 336 317 290 278 265 251 231 224 214 191 177 178 203 217 219 217 233 206 190 202 206 214 222 225 229 234 237 239 242 244 246 248 250 251
44 29 23 19 24 8 357 343 310 260 231 214 202 183 175 168 195 233 228 214 219 215 191 194 188 200 205 220 226 232 236 237 238 240 241 241 243 246
50 42 43 27 32 45 41 37 24 3 313 209 182 164 143 129 88 257 254 227 222 225 219 210 179 180 179 151 103 236 237 236 234 234 235 236 240 244
44 33 34 36 357 16 74 90 59 42 20 8 103 101 100 71 30 284 274 270 266 355 314 226 186 169 139 101 79 36 11 251 233 229 231 235 240 243
54 47 43 36 19 353 27 50 52 43 25 37 64 73 74 77 77 11 325 302 285 330 307 257 211 185 156 124 111 65 44 40 41 37 227 228 226 221
61 48 36 39 12 348 22 61 66 76 78 62 56 67 65 50 13 251 226 257 243 179 308 276 243 203 167 147 127 128 99 78 63 56 42 304 216 222
87 82 59 28 9 360 12 37 51 49 64 99 103 137 119 104 88 348 322 265 247 167 34 313 301 257 184 129 83 109 141 142 150 126 110 170 258 258
61 59 51 20 8 1 353 23 8 327 355 90 115 111 118 102 83 61 13 350 352 87 79 294 299 282 206 145 117 56 28 18 334 167 157 162 223 300
34 44 52 11 351 354 7 6 318 299 311 43 64 59 48 50 53 52 46 41 30 41 26 333 298 276 217 182 157 135 89 26 345 331 84 166 191 184
15 33 7 319 287 262 16 325 308 314 335 352 41 53 51 43 31 122 124 120 106 62 47 0 334 323 291 151 132 148 156 121 68 345 14 25 8 56
348 328 239 252 258 288 284 285 330 8 338 331 335 346 350 208 269 344 208 198 165 119 93 58 23 24 80 79 94 98 86 71 61 33 40 72 53 56
336 316 311 312 300 288 283 305 311 306 307 325 310 297 282 266 235 200 280 276 254 173 143 134 116 81 46 16 99 93 91 82 60 15 291 105 81 70
278 259 283 320 326 324 313 300 285 285 305 307 302 299 295 288 272 239 230 243 243 239 185 155 167 170 165 104 13 22 75 64 77 17 335 10 87 80
263 265 246 212 255 306 310 310 309 308 305 290 290 290 287 281 271 259 246 242 241 236 225 218 230 234 228 182 146 326 357 7 334 31 9 330 349 35
275 293 291 282 256 248 270 295 308 310 302 291 286 285 285 281 275 263 252 247 245 236 227 218 224 239 260 262 165 158 206 293 325 335 335 305 299 214
306 315 320 325 320 315 312 304 297 296 302 304 295 290 285 281 277 273 263 246 248 248 242 230 191 206 252 264 241 186 151 151 353 329 326 315 321 303
319 317 327 325 316 323 319 312 305 299 298 291 293 295 292 287 280 273 271 262 242 240 247 237 163 195 223 233 239 204 177 170 181 209 260 304 337 336
331 323 317 313 319 320 317 319 312 307 311 316 312 306 302 297 293 286 282 275 267 255 253 253 222 218 228 230 237 228 196 199 211 199 184 182 205 231